Location: Calvera
(42.3882°N, 0.6137°E)
Time: 14:12:56
(UTC+00:00)

Meteor 2-5 Rocket - Pass Details

Date: 28 October 2020
Orbit: 834 x 911 km, 81.2° (Epoch: 24 November)

Event Time Altitude Azimuth Distance (km) Brightness Sun altitude
Rises 04:17:57 0° 183° (S) 3,413 6.8 -24.2°
Reaches altitude 10° 04:20:20 10° 182° (S) 2,491 6.1 -23.8°
Maximum altitude 04:25:59 77° 98° (E) 903 3.9 -22.8°
Drops below altitude 10° 04:31:49 10° 13° (NNE) 2,562 6.4 -21.7°
Sets 04:34:18 0° 12° (NNE) 3,517 7.1 -21.2°
